Time,TemperatureF,DewpointF,PressureIn,WindDirection,WindDirectionDegrees,WindSpeedMPH,WindSpeedGustMPH,Humidity,HourlyPrecipIn,Conditions,Clouds,dailyrainin,SoftwareType,DateUTC
2013-03-07 00:00:00,25.9,13.1,30.28,NNW,337,0.0,0.0,58,0.00,,,0.00,WUHU21623XXSP,2013-03-07 06:00:00,
2013-03-07 00:05:00,25.9,13.1,30.28,NNW,337,0.0,0.0,58,0.00,,,0.00,WUHU21623XXSP,2013-03-07 06:05:00,
2013-03-07 00:10:00,26.1,12.8,30.29,NNW,337,0.0,0.0,57,0.00,,,0.00,WUHU21623XXSP,2013-03-07 06:10:00,
2013-03-07 00:15:00,25.9,12.6,30.29,West,270,0.0,0.0,57,0.00,,,0.00,WUHU21623XXSP,2013-03-07 06:15:00,
2013-03-07 00:20:00,26.1,12.8,30.29,NW,315,0.0,0.0,57,0.00,,,0.00,WUHU21623XXSP,2013-03-07 06:20:00,
2013-03-07 00:25:00,26.1,12.8,30.29,NW,315,0.0,0.0,57,0.00,,,0.00,WUHU21623XXSP,2013-03-07 06:25:00,
2013-03-07 00:30:00,25.9,12.6,30.30,NW,315,0.0,0.0,57,0.00,,,0.00,WUHU21623XXSP,2013-03-07 06:30:00,
2013-03-07 00:35:00,26.1,12.8,30.30,NW,315,0.0,0.0,57,0.00,,,0.00,WUHU21623XXSP,2013-03-07 06:35:00,
2013-03-07 00:40:00,26.1,12.8,30.30,NW,315,0.0,0.0,57,0.00,,,0.00,WUHU21623XXSP,2013-03-07 06:40:00,
2013-03-07 00:45:00,26.2,13.4,30.30,NNW,337,0.0,0.0,58,0.00,,,0.00,WUHU21623XXSP,2013-03-07 06:45:00,
2013-03-07 00:50:00,26.1,13.2,30.30,NW,315,0.0,0.0,58,0.00,,,0.00,WUHU21623XXSP,2013-03-07 06:50:00,
2013-03-07 00:55:00,26.1,13.2,30.30,NW,315,0.0,0.0,58,0.00,,,0.00,WUHU21623XXSP,2013-03-07 06:55:00,
2013-03-07 01:00:00,26.1,13.2,30.30,NW,315,0.0,0.7,58,0.00,,,0.00,WUHU21623XXSP,2013-03-07 07:00:00,
2013-03-07 01:05:00,26.1,13.2,30.30,NW,315,1.3,1.3,58,0.00,,,0.00,WUHU21623XXSP,2013-03-07 07:05:00,
2013-03-07 01:10:00,26.1,12.8,30.31,NW,315,0.4,1.3,57,0.00,,,0.00,WUHU21623XXSP,2013-03-07 07:10:00,
2013-03-07 01:15:00,25.9,12.6,30.31,WNW,292,0.0,1.3,57,0.00,,,0.00,WUHU21623XXSP,2013-03-07 07:15:00,
2013-03-07 01:20:00,25.9,12.6,30.31,NNW,337,0.0,1.3,57,0.00,,,0.00,WUHU21623XXSP,2013-03-07 07:20:00,
2013-03-07 01:25:00,25.9,12.6,30.31,NNW,337,0.0,0.9,57,0.00,,,0.00,WUHU21623XXSP,2013-03-07 07:25:00,
2013-03-07 01:30:00,25.9,12.6,30.31,NNW,337,0.0,1.3,57,0.00,,,0.00,WUHU21623XXSP,2013-03-07 07:30:00,
2013-03-07 01:35:00,25.9,12.6,30.31,WNW,292,1.8,1.8,57,0.00,,,0.00,WUHU21623XXSP,2013-03-07 07:35:00,
2013-03-07 01:40:00,25.7,12.5,30.31,NW,315,1.3,1.8,57,0.00,,,0.00,WUHU21623XXSP,2013-03-07 07:40:00,
2013-03-07 01:45:00,25.9,12.6,30.32,NW,315,1.6,1.6,57,0.00,,,0.00,WUHU21623XXSP,2013-03-07 07:45:00,
2013-03-07 01:50:00,25.9,12.6,30.31,NW,315,0.0,1.6,57,0.00,,,0.00,WUHU21623XXSP,2013-03-07 07:50:00,
2013-03-07 01:55:00,25.7,12.5,30.31,NW,315,0.0,1.6,57,0.00,,,0.00,WUHU21623XXSP,2013-03-07 07:55:00,
2013-03-07 02:00:00,26.1,12.8,30.32,NW,315,0.0,0.0,57,0.00,,,0.00,WUHU21623XXSP,2013-03-07 08:00:00,
2013-03-07 02:05:00,25.9,12.6,30.32,North,0,0.0,0.0,57,0.00,,,0.00,WUHU21623XXSP,2013-03-07 08:05:00,
2013-03-07 02:10:00,25.9,12.6,30.31,WNW,292,0.0,0.4,57,0.00,,,0.00,WUHU21623XXSP,2013-03-07 08:10:00,
2013-03-07 02:15:00,25.9,12.6,30.32,NNW,337,0.0,0.4,57,0.00,,,0.00,WUHU21623XXSP,2013-03-07 08:15:00,
2013-03-07 02:20:00,25.9,12.6,30.32,NNW,337,1.1,1.1,57,0.00,,,0.00,WUHU21623XXSP,2013-03-07 08:20:00,
2013-03-07 02:25:00,25.9,12.6,30.32,NNW,337,0.0,1.1,57,0.00,,,0.00,WUHU21623XXSP,2013-03-07 08:25:00,
2013-03-07 02:30:00,25.9,12.6,30.32,NE,45,0.0,0.0,57,0.00,,,0.00,WUHU21623XXSP,2013-03-07 08:30:00,
2013-03-07 02:35:00,25.9,12.6,30.32,NNE,22,0.9,1.8,57,0.00,,,0.00,WUHU21623XXSP,2013-03-07 08:35:00,
2013-03-07 02:40:00,25.7,12.5,30.32,NNE,22,0.0,1.8,57,0.00,,,0.00,WUHU21623XXSP,2013-03-07 08:40:00,
2013-03-07 02:45:00,25.9,12.6,30.32,NW,315,0.0,0.0,57,0.00,,,0.00,WUHU21623XXSP,2013-03-07 08:45:00,
2013-03-07 02:50:00,25.9,12.6,30.32,NNW,337,0.0,0.0,57,0.00,,,0.00,WUHU21623XXSP,2013-03-07 08:50:00,
2013-03-07 02:56:00,25.7,12.5,30.32,NNW,337,0.0,0.0,57,0.00,,,0.00,WUHU21623XXSP,2013-03-07 08:56:00,
2013-03-07 03:01:00,25.7,12.5,30.32,NW,315,0.0,0.0,57,0.00,,,0.00,WUHU21623XXSP,2013-03-07 09:01:00,
2013-03-07 03:06:00,25.7,12.5,30.32,NNW,337,0.0,0.0,57,0.00,,,0.00,WUHU21623XXSP,2013-03-07 09:06:00,
2013-03-07 03:11:00,25.7,12.5,30.32,NW,315,0.0,0.0,57,0.00,,,0.00,WUHU21623XXSP,2013-03-07 09:11:00,
2013-03-07 03:16:00,25.7,12.5,30.32,North,0,0.0,0.0,57,0.00,,,0.00,WUHU21623XXSP,2013-03-07 09:16:00,
2013-03-07 03:21:00,25.7,12.5,30.31,North,0,0.0,0.0,57,0.00,,,0.00,WUHU21623XXSP,2013-03-07 09:21:00,
2013-03-07 03:26:00,25.7,12.5,30.31,NW,315,0.0,0.0,57,0.00,,,0.00,WUHU21623XXSP,2013-03-07 09:26:00,
2013-03-07 03:31:00,25.7,12.5,30.32,NW,315,0.0,0.0,57,0.00,,,0.00,WUHU21623XXSP,2013-03-07 09:31:00,
2013-03-07 03:36:00,25.5,12.3,30.31,NW,315,0.0,0.9,57,0.00,,,0.00,WUHU21623XXSP,2013-03-07 09:36:00,
2013-03-07 03:41:00,25.5,12.3,30.31,NW,315,0.0,0.9,57,0.00,,,0.00,WUHU21623XXSP,2013-03-07 09:41:00,
2013-03-07 03:46:00,25.7,12.5,30.31,NW,315,0.0,0.0,57,0.00,,,0.00,WUHU21623XXSP,2013-03-07 09:46:00,
2013-03-07 03:51:00,25.5,12.3,30.31,NNW,337,0.4,0.4,57,0.00,,,0.00,WUHU21623XXSP,2013-03-07 09:51:00,
2013-03-07 03:56:00,25.5,12.3,30.31,North,0,0.0,0.4,57,0.00,,,0.00,WUHU21623XXSP,2013-03-07 09:56:00,
2013-03-07 04:01:00,25.5,12.3,30.31,NW,315,0.0,0.7,57,0.00,,,0.00,WUHU21623XXSP,2013-03-07 10:01:00,
2013-03-07 04:06:00,25.5,12.3,30.31,NNW,337,0.0,0.7,57,0.00,,,0.00,WUHU21623XXSP,2013-03-07 10:06:00,
2013-03-07 04:11:00,25.5,12.3,30.31,NNW,337,0.0,0.0,57,0.00,,,0.00,WUHU21623XXSP,2013-03-07 10:11:00,
2013-03-07 04:16:00,25.5,12.3,30.31,NNW,337,0.0,0.0,57,0.00,,,0.00,WUHU21623XXSP,2013-03-07 10:16:00,
2013-03-07 04:21:00,25.5,12.3,30.30,NNW,337,0.0,0.0,57,0.00,,,0.00,WUHU21623XXSP,2013-03-07 10:21:00,
2013-03-07 04:26:00,25.5,12.3,30.31,NNW,337,0.0,0.0,57,0.00,,,0.00,WUHU21623XXSP,2013-03-07 10:26:00,
2013-03-07 04:31:00,25.5,12.3,30.31,NNW,337,0.0,0.0,57,0.00,,,0.00,WUHU21623XXSP,2013-03-07 10:31:00,
2013-03-07 04:36:00,25.5,12.3,30.31,NNW,337,0.0,0.0,57,0.00,,,0.00,WUHU21623XXSP,2013-03-07 10:36:00,
2013-03-07 04:41:00,25.5,12.3,30.31,NNW,337,0.0,0.0,57,0.00,,,0.00,WUHU21623XXSP,2013-03-07 10:41:00,
2013-03-07 04:46:00,25.5,12.3,30.31,NNW,337,0.0,0.0,57,0.00,,,0.00,WUHU21623XXSP,2013-03-07 10:46:00,
2013-03-07 04:51:00,25.5,12.3,30.31,NNW,337,0.0,0.0,57,0.00,,,0.00,WUHU21623XXSP,2013-03-07 10:51:00,
2013-03-07 04:56:00,25.5,12.3,30.32,NNW,337,0.0,0.0,57,0.00,,,0.00,WUHU21623XXSP,2013-03-07 10:56:00,
2013-03-07 05:01:00,25.5,12.3,30.32,NNW,337,0.0,0.0,57,0.00,,,0.00,WUHU21623XXSP,2013-03-07 11:01:00,
2013-03-07 05:06:00,25.5,12.3,30.32,NNW,337,0.0,0.0,57,0.00,,,0.00,WUHU21623XXSP,2013-03-07 11:06:00,
2013-03-07 05:11:00,25.5,12.3,30.32,NNW,337,0.0,0.0,57,0.00,,,0.00,WUHU21623XXSP,2013-03-07 11:11:00,
2013-03-07 05:16:00,25.5,12.3,30.32,NNW,337,0.0,0.0,57,0.00,,,0.00,WUHU21623XXSP,2013-03-07 11:16:00,
2013-03-07 05:21:00,25.5,12.3,30.32,NNW,337,0.0,0.0,57,0.00,,,0.00,WUHU21623XXSP,2013-03-07 11:21:00,
2013-03-07 05:26:00,25.5,12.3,30.32,NNW,337,0.0,0.0,57,0.00,,,0.00,WUHU21623XXSP,2013-03-07 11:26:00,
2013-03-07 05:31:00,25.5,12.3,30.32,NNW,337,0.0,0.0,57,0.00,,,0.00,WUHU21623XXSP,2013-03-07 11:31:00,
2013-03-07 05:37:00,25.5,12.3,30.33,WSW,247,0.0,0.0,57,0.00,,,0.00,WUHU21623XXSP,2013-03-07 11:37:00,
2013-03-07 05:42:00,25.3,12.2,30.33,SW,225,0.0,0.0,57,0.00,,,0.00,WUHU21623XXSP,2013-03-07 11:42:00,
2013-03-07 05:47:00,25.2,12.0,30.33,SW,225,0.0,0.0,57,0.00,,,0.00,WUHU21623XXSP,2013-03-07 11:47:00,
2013-03-07 05:52:00,25.2,12.4,30.33,SW,225,0.0,0.0,58,0.00,,,0.00,WUHU21623XXSP,2013-03-07 11:52:00,
2013-03-07 05:57:00,25.2,12.4,30.33,SW,225,0.0,0.0,58,0.00,,,0.00,WUHU21623XXSP,2013-03-07 11:57:00,
2013-03-07 06:02:00,25.2,12.4,30.33,SW,225,0.0,0.0,58,0.00,,,0.00,WUHU21623XXSP,2013-03-07 12:02:00,
2013-03-07 06:07:00,25.2,12.4,30.34,SW,225,0.0,0.0,58,0.00,,,0.00,WUHU21623XXSP,2013-03-07 12:07:00,
2013-03-07 06:12:00,25.0,12.4,30.33,SW,225,0.0,0.0,58,0.00,,,0.00,WUHU21623XXSP,2013-03-07 12:12:00,
2013-03-07 06:17:00,25.2,12.4,30.33,SW,225,0.0,0.0,58,0.00,,,0.00,WUHU21623XXSP,2013-03-07 12:17:00,
2013-03-07 06:22:00,25.0,12.3,30.33,SW,225,0.0,0.0,58,0.00,,,0.00,WUHU21623XXSP,2013-03-07 12:22:00,
2013-03-07 06:27:00,25.0,12.3,30.33,SW,225,0.0,0.0,58,0.00,,,0.00,WUHU21623XXSP,2013-03-07 12:27:00,
2013-03-07 06:32:00,25.2,12.4,30.33,SW,225,0.0,0.0,58,0.00,,,0.00,WUHU21623XXSP,2013-03-07 12:32:00,
2013-03-07 06:37:00,25.2,12.4,30.33,SW,225,0.0,0.0,58,0.00,,,0.00,WUHU21623XXSP,2013-03-07 12:37:00,
2013-03-07 06:42:00,25.2,12.4,30.33,SW,225,0.0,0.0,58,0.00,,,0.00,WUHU21623XXSP,2013-03-07 12:42:00,
2013-03-07 06:47:00,25.3,12.6,30.33,SW,225,0.0,0.0,58,0.00,,,0.00,WUHU21623XXSP,2013-03-07 12:47:00,
2013-03-07 06:52:00,25.5,12.7,30.33,SSW,202,0.0,0.0,58,0.00,,,0.00,WUHU21623XXSP,2013-03-07 12:52:00,
2013-03-07 06:57:00,25.5,12.7,30.34,SW,225,0.0,0.0,58,0.00,,,0.00,WUHU21623XXSP,2013-03-07 12:57:00,
2013-03-07 07:02:00,25.5,12.7,30.34,SW,225,0.0,0.0,58,0.00,,,0.00,WUHU21623XXSP,2013-03-07 13:02:00,
2013-03-07 07:07:00,25.7,12.9,30.34,WSW,247,0.0,0.0,58,0.00,,,0.00,WUHU21623XXSP,2013-03-07 13:07:00,
2013-03-07 07:12:00,25.9,13.1,30.34,SW,225,0.0,0.0,58,0.00,,,0.00,WUHU21623XXSP,2013-03-07 13:12:00,
2013-03-07 07:17:00,26.1,13.2,30.35,SW,225,0.0,0.0,58,0.00,,,0.00,WUHU21623XXSP,2013-03-07 13:17:00,
2013-03-07 07:22:00,26.2,13.4,30.35,SW,225,0.0,0.0,58,0.00,,,0.00,WUHU21623XXSP,2013-03-07 13:22:00,
2013-03-07 07:27:00,26.6,13.7,30.35,SW,225,0.0,0.0,58,0.00,,,0.00,WUHU21623XXSP,2013-03-07 13:27:00,
2013-03-07 07:32:00,26.8,13.9,30.35,SW,225,0.0,0.0,58,0.00,,,0.00,WUHU21623XXSP,2013-03-07 13:32:00,
2013-03-07 07:37:00,27.3,14.4,30.35,WNW,292,0.0,0.0,58,0.00,,,0.00,WUHU21623XXSP,2013-03-07 13:37:00,
2013-03-07 07:42:00,27.5,14.6,30.35,WNW,292,0.0,0.0,58,0.00,,,0.00,WUHU21623XXSP,2013-03-07 13:42:00,
2013-03-07 07:47:00,28.2,15.3,30.36,WNW,292,0.0,0.0,58,0.00,,,0.00,WUHU21623XXSP,2013-03-07 13:47:00,
2013-03-07 07:52:00,28.6,15.3,30.36,NW,315,0.0,0.0,57,0.00,,,0.00,WUHU21623XXSP,2013-03-07 13:52:00,
2013-03-07 07:57:00,29.1,15.7,30.36,NW,315,0.0,0.0,57,0.00,,,0.00,WUHU21623XXSP,2013-03-07 13:57:00,
2013-03-07 08:02:00,29.7,15.8,30.36,WNW,292,0.0,0.0,56,0.00,,,0.00,WUHU21623XXSP,2013-03-07 14:02:00,
2013-03-07 08:07:00,29.8,16.0,30.36,South,180,0.0,0.0,56,0.00,,,0.00,WUHU21623XXSP,2013-03-07 14:07:00,
2013-03-07 08:12:00,29.8,15.6,30.36,South,180,0.0,0.0,55,0.00,,,0.00,WUHU21623XXSP,2013-03-07 14:12:00,
2013-03-07 08:17:00,30.4,16.1,30.36,West,270,0.0,0.0,55,0.00,,,0.00,WUHU21623XXSP,2013-03-07 14:17:00,
2013-03-07 08:22:00,30.7,16.0,30.36,WNW,292,0.0,0.0,54,0.00,,,0.00,WUHU21623XXSP,2013-03-07 14:22:00,
2013-03-07 08:27:00,30.9,16.1,30.36,SW,225,0.0,0.0,54,0.00,,,0.00,WUHU21623XXSP,2013-03-07 14:27:00,
2013-03-07 08:32:00,31.1,15.9,30.37,WNW,292,0.0,0.0,53,0.00,,,0.00,WUHU21623XXSP,2013-03-07 14:32:00,
2013-03-07 08:37:00,31.6,16.4,30.36,WNW,292,0.0,0.0,53,0.00,,,0.00,WUHU21623XXSP,2013-03-07 14:37:00,
2013-03-07 08:43:00,32.2,16.5,30.36,WNW,292,0.0,0.0,52,0.00,,,0.00,WUHU21623XXSP,2013-03-07 14:43:00,
2013-03-07 08:48:00,32.5,16.4,30.36,WSW,247,0.0,0.0,51,0.00,,,0.00,WUHU21623XXSP,2013-03-07 14:48:00,
2013-03-07 08:53:00,32.5,16.4,30.37,South,180,1.1,1.1,51,0.00,,,0.00,WUHU21623XXSP,2013-03-07 14:53:00,
2013-03-07 08:58:00,32.7,16.1,30.37,SSW,202,0.0,1.1,50,0.00,,,0.00,WUHU21623XXSP,2013-03-07 14:58:00,
2013-03-07 09:03:00,32.9,16.3,30.37,SSW,202,1.1,1.1,50,0.00,,,0.00,WUHU21623XXSP,2013-03-07 15:03:00,
2013-03-07 09:08:00,32.9,15.7,30.37,West,270,0.0,1.1,49,0.00,,,0.00,WUHU21623XXSP,2013-03-07 15:08:00,
2013-03-07 09:13:00,33.4,16.2,30.37,ESE,112,0.0,0.0,49,0.00,,,0.00,WUHU21623XXSP,2013-03-07 15:13:00,
2013-03-07 09:18:00,34.0,16.2,30.38,South,180,0.4,0.4,48,0.00,,,0.00,WUHU21623XXSP,2013-03-07 15:18:00,
2013-03-07 09:23:00,33.8,15.5,30.37,SW,225,0.0,0.4,47,0.00,,,0.00,WUHU21623XXSP,2013-03-07 15:23:00,
2013-03-07 09:28:00,34.0,15.7,30.38,South,180,0.0,0.0,47,0.00,,,0.00,WUHU21623XXSP,2013-03-07 15:28:00,
2013-03-07 09:33:00,34.3,16.1,30.38,SSE,157,0.0,0.0,47,0.00,,,0.00,WUHU21623XXSP,2013-03-07 15:33:00,
2013-03-07 09:38:00,34.7,16.4,30.38,SSE,157,0.4,0.4,47,0.00,,,0.00,WUHU21623XXSP,2013-03-07 15:38:00,
2013-03-07 09:43:00,35.4,16.6,30.37,SE,135,0.0,0.4,46,0.00,,,0.00,WUHU21623XXSP,2013-03-07 15:43:00,
2013-03-07 09:48:00,35.4,16.1,30.37,SE,135,0.0,0.0,45,0.00,,,0.00,WUHU21623XXSP,2013-03-07 15:48:00,
2013-03-07 09:53:00,35.2,15.4,30.37,SSW,202,0.0,0.0,44,0.00,,,0.00,WUHU21623XXSP,2013-03-07 15:53:00,
2013-03-07 09:58:00,35.1,14.7,30.37,SE,135,0.0,0.9,43,0.00,,,0.00,WUHU21623XXSP,2013-03-07 15:58:00,
2013-03-07 10:03:00,35.1,14.7,30.37,SSW,202,2.2,2.2,43,0.00,,,0.00,WUHU21623XXSP,2013-03-07 16:03:00,
2013-03-07 10:08:00,35.2,14.9,30.37,SW,225,1.6,2.2,43,0.00,,,0.00,WUHU21623XXSP,2013-03-07 16:08:00,
2013-03-07 10:13:00,34.9,14.0,30.36,ESE,112,0.0,1.6,42,0.00,,,0.00,WUHU21623XXSP,2013-03-07 16:13:00,
2013-03-07 10:18:00,34.9,14.0,30.37,SSE,157,0.4,1.3,42,0.00,,,0.00,WUHU21623XXSP,2013-03-07 16:18:00,
2013-03-07 10:23:00,34.9,14.0,30.37,SSE,157,0.0,1.3,42,0.00,,,0.00,WUHU21623XXSP,2013-03-07 16:23:00,
2013-03-07 10:28:00,35.2,14.3,30.37,South,180,0.0,1.6,42,0.00,,,0.00,WUHU21623XXSP,2013-03-07 16:28:00,
2013-03-07 10:33:00,35.2,13.8,30.36,SSW,202,0.0,2.0,41,0.00,,,0.00,WUHU21623XXSP,2013-03-07 16:33:00,
2013-03-07 10:38:00,35.6,13.8,30.37,WSW,247,0.0,2.0,42,0.00,,,0.00,WUHU21623XXSP,2013-03-07 16:38:00,
2013-03-07 10:43:00,36.3,15.3,30.37,South,180,0.0,0.0,42,0.00,,,0.00,WUHU21623XXSP,2013-03-07 16:43:00,
2013-03-07 10:48:00,36.3,14.8,30.37,SSE,157,0.0,0.7,41,0.00,,,0.00,WUHU21623XXSP,2013-03-07 16:48:00,
2013-03-07 10:53:00,36.5,14.4,30.37,South,180,0.0,1.1,40,0.00,,,0.00,WUHU21623XXSP,2013-03-07 16:53:00,
2013-03-07 10:58:00,36.5,14.4,30.37,SSW,202,0.0,1.1,40,0.00,,,0.00,WUHU21623XXSP,2013-03-07 16:58:00,
2013-03-07 11:03:00,36.5,14.4,30.37,SE,135,0.0,0.7,40,0.00,,,0.00,WUHU21623XXSP,2013-03-07 17:03:00,
2013-03-07 11:08:00,36.7,14.6,30.36,SW,225,0.2,0.2,40,0.00,,,0.00,WUHU21623XXSP,2013-03-07 17:08:00,
2013-03-07 11:13:00,36.5,13.8,30.37,SSW,202,0.4,0.4,39,0.00,,,0.00,WUHU21623XXSP,2013-03-07 17:13:00,
2013-03-07 11:18:00,36.7,14.0,30.38,SSW,202,4.5,4.5,39,0.00,,,0.00,WUHU21623XXSP,2013-03-07 17:18:00,
2013-03-07 11:23:00,36.0,12.0,30.38,SSW,202,0.0,4.5,37,0.00,,,0.00,WUHU21623XXSP,2013-03-07 17:23:00,
2013-03-07 11:28:00,36.3,13.0,30.37,South,180,0.7,3.1,38,0.00,,,0.00,WUHU21623XXSP,2013-03-07 17:28:00,
2013-03-07 11:33:00,36.7,14.0,30.37,SSW,202,0.0,1.1,39,0.00,,,0.00,WUHU21623XXSP,2013-03-07 17:33:00,
2013-03-07 11:38:00,36.9,13.5,30.36,SSW,202,0.0,3.6,38,0.00,,,0.00,WUHU21623XXSP,2013-03-07 17:38:00,
2013-03-07 11:43:00,37.0,13.6,30.36,South,180,0.0,3.6,38,0.00,,,0.00,WUHU21623XXSP,2013-03-07 17:43:00,
2013-03-07 11:48:00,37.8,14.3,30.36,SSW,202,3.4,3.4,38,0.00,,,0.00,WUHU21623XXSP,2013-03-07 17:48:00,
2013-03-07 11:53:00,38.3,14.8,30.36,SE,135,0.0,3.4,38,0.00,,,0.00,WUHU21623XXSP,2013-03-07 17:53:00,
2013-03-07 11:58:00,38.1,13.3,30.36,SSW,202,1.3,1.6,36,0.00,,,0.00,WUHU21623XXSP,2013-03-07 17:58:00,
2013-03-07 12:03:00,38.1,13.3,30.36,SE,135,0.7,1.3,36,0.00,,,0.00,WUHU21623XXSP,2013-03-07 18:03:00,
2013-03-07 12:08:00,38.3,12.8,30.36,SE,135,0.7,3.1,35,0.00,,,0.00,WUHU21623XXSP,2013-03-07 18:08:00,
2013-03-07 12:13:00,38.1,12.7,30.36,SSE,157,2.0,3.4,35,0.00,,,0.00,WUHU21623XXSP,2013-03-07 18:13:00,
2013-03-07 12:18:00,37.8,12.3,30.36,South,180,2.7,3.4,35,0.00,,,0.00,WUHU21623XXSP,2013-03-07 18:18:00,
2013-03-07 12:23:00,38.1,13.3,30.36,South,180,1.1,2.7,36,0.00,,,0.00,WUHU21623XXSP,2013-03-07 18:23:00,
2013-03-07 12:28:00,38.3,12.8,30.36,SSW,202,0.7,2.0,35,0.00,,,0.00,WUHU21623XXSP,2013-03-07 18:28:00,
2013-03-07 12:33:00,38.7,13.2,30.36,SSW,202,0.0,0.7,35,0.00,,,0.00,WUHU21623XXSP,2013-03-07 18:33:00,
2013-03-07 12:38:00,37.8,12.3,30.36,South,180,3.1,3.1,35,0.00,,,0.00,WUHU21623XXSP,2013-03-07 18:38:00,
2013-03-07 12:44:00,37.6,12.2,30.36,SSE,157,1.1,3.1,35,0.00,,,0.00,WUHU21623XXSP,2013-03-07 18:44:00,
2013-03-07 12:49:00,37.0,12.2,30.36,SE,135,1.1,2.9,35,0.00,,,0.00,WUHU21623XXSP,2013-03-07 18:49:00,
2013-03-07 12:54:00,37.2,12.5,30.36,SSW,202,0.0,1.1,36,0.00,,,0.00,WUHU21623XXSP,2013-03-07 18:54:00,
2013-03-07 12:59:00,37.6,12.8,30.35,South,180,5.8,5.8,36,0.00,,,0.00,WUHU21623XXSP,2013-03-07 18:59:00,
2013-03-07 13:04:00,37.8,13.0,30.35,SSW,202,4.7,5.8,36,0.00,,,0.00,WUHU21623XXSP,2013-03-07 19:04:00,
2013-03-07 13:09:00,37.6,12.8,30.35,South,180,2.5,4.7,36,0.00,,,0.00,WUHU21623XXSP,2013-03-07 19:09:00,
2013-03-07 13:14:00,37.2,11.9,30.35,SSW,202,0.4,2.5,35,0.00,,,0.00,WUHU21623XXSP,2013-03-07 19:14:00,
2013-03-07 13:19:00,37.6,12.2,30.35,SSW,202,3.6,3.6,35,0.00,,,0.00,WUHU21623XXSP,2013-03-07 19:19:00,
2013-03-07 13:24:00,37.6,12.2,30.35,SSW,202,1.3,3.6,35,0.00,,,0.00,WUHU21623XXSP,2013-03-07 19:24:00,
2013-03-07 13:29:00,37.6,12.2,30.35,SE,135,0.0,2.0,35,0.00,,,0.00,WUHU21623XXSP,2013-03-07 19:29:00,
2013-03-07 13:34:00,37.9,13.2,30.35,SW,225,1.3,2.0,36,0.00,,,0.00,WUHU21623XXSP,2013-03-07 19:34:00,
2013-03-07 13:39:00,37.9,13.2,30.34,SE,135,0.0,1.3,36,0.00,,,0.00,WUHU21623XXSP,2013-03-07 19:39:00,
2013-03-07 13:44:00,37.9,13.2,30.35,SE,135,0.0,1.1,36,0.00,,,0.00,WUHU21623XXSP,2013-03-07 19:44:00,
2013-03-07 13:49:00,37.9,13.2,30.35,South,180,4.3,4.3,36,0.00,,,0.00,WUHU21623XXSP,2013-03-07 19:49:00,
2013-03-07 13:54:00,37.8,12.3,30.35,SSW,202,1.3,4.3,35,0.00,,,0.00,WUHU21623XXSP,2013-03-07 19:54:00,
2013-03-07 13:59:00,36.7,10.7,30.35,South,180,0.0,1.3,34,0.00,,,0.00,WUHU21623XXSP,2013-03-07 19:59:00,
2013-03-07 14:04:00,36.9,11.5,30.35,SSW,202,1.8,1.8,35,0.00,,,0.00,WUHU21623XXSP,2013-03-07 20:04:00,
2013-03-07 14:09:00,36.9,12.2,30.35,SSW,202,2.0,2.0,36,0.00,,,0.00,WUHU21623XXSP,2013-03-07 20:09:00,
2013-03-07 14:14:00,37.0,12.3,30.35,SSW,202,1.8,2.0,36,0.00,,,0.00,WUHU21623XXSP,2013-03-07 20:14:00,
2013-03-07 14:19:00,37.0,12.3,30.35,SSW,202,0.0,1.8,36,0.00,,,0.00,WUHU21623XXSP,2013-03-07 20:19:00,
2013-03-07 14:24:00,37.6,12.8,30.35,SE,135,0.7,0.7,36,0.00,,,0.00,WUHU21623XXSP,2013-03-07 20:24:00,
2013-03-07 14:29:00,37.9,13.8,30.35,SSE,157,0.0,0.7,37,0.00,,,0.00,WUHU21623XXSP,2013-03-07 20:29:00,
2013-03-07 14:34:00,37.6,12.8,30.35,SSW,202,2.2,2.2,36,0.00,,,0.00,WUHU21623XXSP,2013-03-07 20:34:00,
2013-03-07 14:39:00,37.6,12.8,30.35,SSE,157,0.7,2.5,36,0.00,,,0.00,WUHU21623XXSP,2013-03-07 20:39:00,
2013-03-07 14:44:00,39.2,14.9,30.34,SE,135,0.0,2.5,37,0.00,,,0.00,WUHU21623XXSP,2013-03-07 20:44:00,
2013-03-07 14:49:00,40.5,15.6,30.35,WNW,292,2.5,2.5,37,0.00,,,0.00,WUHU21623XXSP,2013-03-07 20:49:00,
2013-03-07 14:54:00,40.6,13.6,30.35,SSW,202,0.0,2.5,33,0.00,,,0.00,WUHU21623XXSP,2013-03-07 20:54:00,
2013-03-07 14:59:00,40.6,12.3,30.35,ESE,112,1.3,1.3,31,0.00,,,0.00,WUHU21623XXSP,2013-03-07 20:59:00,
2013-03-07 15:04:00,40.6,13.0,30.35,ESE,112,0.0,1.3,32,0.00,,,0.00,WUHU21623XXSP,2013-03-07 21:04:00,
2013-03-07 15:09:00,40.5,12.8,30.35,ESE,112,0.0,1.8,32,0.00,,,0.00,WUHU21623XXSP,2013-03-07 21:09:00,
2013-03-07 15:15:00,40.6,13.0,30.35,South,180,0.0,1.8,32,0.00,,,0.00,WUHU21623XXSP,2013-03-07 21:15:00,
2013-03-07 15:20:00,39.9,11.7,30.35,SSW,202,0.0,0.7,31,0.00,,,0.00,WUHU21623XXSP,2013-03-07 21:20:00,
2013-03-07 15:25:00,40.1,12.5,30.35,SE,135,1.3,1.3,32,0.00,,,0.00,WUHU21623XXSP,2013-03-07 21:25:00,
2013-03-07 15:30:00,39.6,12.0,30.35,SSW,202,0.7,1.3,32,0.00,,,0.00,WUHU21623XXSP,2013-03-07 21:30:00,
2013-03-07 15:35:00,38.8,10.7,30.35,South,180,2.2,2.2,31,0.00,,,0.00,WUHU21623XXSP,2013-03-07 21:35:00,
2013-03-07 15:40:00,38.8,12.0,30.34,East,90,0.7,2.2,33,0.00,,,0.00,WUHU21623XXSP,2013-03-07 21:40:00,
2013-03-07 15:45:00,38.3,10.9,30.34,ESE,112,0.4,0.7,32,0.00,,,0.00,WUHU21623XXSP,2013-03-07 21:45:00,
2013-03-07 15:50:00,37.8,11.0,30.34,SE,135,0.0,0.4,33,0.00,,,0.00,WUHU21623XXSP,2013-03-07 21:50:00,
2013-03-07 15:55:00,37.4,10.7,30.34,SE,135,0.9,1.1,33,0.00,,,0.00,WUHU21623XXSP,2013-03-07 21:55:00,
2013-03-07 16:00:00,37.0,11.7,30.34,SE,135,1.1,1.1,35,0.00,,,0.00,WUHU21623XXSP,2013-03-07 22:00:00,
2013-03-07 16:05:00,37.0,11.7,30.33,SE,135,1.3,1.3,35,0.00,,,0.00,WUHU21623XXSP,2013-03-07 22:05:00,
2013-03-07 16:10:00,36.9,11.5,30.34,SSE,157,0.7,1.8,35,0.00,,,0.00,WUHU21623XXSP,2013-03-07 22:10:00,
2013-03-07 16:15:00,37.0,12.3,30.33,SE,135,0.7,1.8,36,0.00,,,0.00,WUHU21623XXSP,2013-03-07 22:15:00,
2013-03-07 16:20:00,37.0,12.3,30.34,SSE,157,1.1,2.0,36,0.00,,,0.00,WUHU21623XXSP,2013-03-07 22:20:00,
2013-03-07 16:25:00,37.0,12.3,30.34,SSE,157,0.0,2.0,36,0.00,,,0.00,WUHU21623XXSP,2013-03-07 22:25:00,
2013-03-07 16:30:00,36.5,11.2,30.34,South,180,0.0,0.7,35,0.00,,,0.00,WUHU21623XXSP,2013-03-07 22:30:00,
2013-03-07 16:35:00,36.0,11.4,30.34,South,180,0.0,0.7,36,0.00,,,0.00,WUHU21623XXSP,2013-03-07 22:35:00,
2013-03-07 16:40:00,35.4,10.9,30.34,South,180,0.4,0.4,36,0.00,,,0.00,WUHU21623XXSP,2013-03-07 22:40:00,
2013-03-07 16:45:00,35.2,10.7,30.33,SE,135,0.0,0.4,36,0.00,,,0.00,WUHU21623XXSP,2013-03-07 22:45:00,
2013-03-07 16:50:00,34.5,10.7,30.33,SSE,157,0.7,1.1,37,0.00,,,0.00,WUHU21623XXSP,2013-03-07 22:50:00,
2013-03-07 16:55:00,34.2,10.4,30.33,SE,135,0.0,1.1,37,0.00,,,0.00,WUHU21623XXSP,2013-03-07 22:55:00,
2013-03-07 17:00:00,33.4,11.1,30.34,South,180,0.4,0.4,39,0.00,,,0.00,WUHU21623XXSP,2013-03-07 23:00:00,
2013-03-07 17:05:00,33.1,11.4,30.34,South,180,0.4,0.7,40,0.00,,,0.00,WUHU21623XXSP,2013-03-07 23:05:00,
2013-03-07 17:10:00,32.7,11.0,30.34,SSW,202,0.0,0.7,40,0.00,,,0.00,WUHU21623XXSP,2013-03-07 23:10:00,
2013-03-07 17:15:00,32.4,11.2,30.34,SSW,202,0.0,0.2,41,0.00,,,0.00,WUHU21623XXSP,2013-03-07 23:15:00,
2013-03-07 17:20:00,32.2,11.1,30.34,SE,135,0.0,0.0,41,0.00,,,0.00,WUHU21623XXSP,2013-03-07 23:20:00,
2013-03-07 17:25:00,31.6,10.6,30.34,SSE,157,0.0,0.0,41,0.00,,,0.00,WUHU21623XXSP,2013-03-07 23:25:00,
2013-03-07 17:30:00,31.3,10.8,30.34,South,180,0.0,0.0,42,0.00,,,0.00,WUHU21623XXSP,2013-03-07 23:30:00,
2013-03-07 17:35:00,30.9,10.4,30.35,SSW,202,0.0,0.0,42,0.00,,,0.00,WUHU21623XXSP,2013-03-07 23:35:00,
2013-03-07 17:40:00,30.6,10.1,30.35,South,180,0.0,0.0,42,0.00,,,0.00,WUHU21623XXSP,2013-03-07 23:40:00,
2013-03-07 17:45:00,30.0,10.1,30.35,South,180,0.0,0.0,43,0.00,,,0.00,WUHU21623XXSP,2013-03-07 23:45:00,
2013-03-07 17:50:00,29.8,10.0,30.35,South,180,0.0,0.0,43,0.00,,,0.00,WUHU21623XXSP,2013-03-07 23:50:00,
2013-03-07 17:55:00,29.5,10.1,30.35,South,180,0.0,0.0,44,0.00,,,0.00,WUHU21623XXSP,2013-03-07 23:55:00,
2013-03-07 18:00:00,29.3,10.0,30.35,South,180,0.0,0.0,44,0.00,,,0.00,WUHU21623XXSP,2013-03-08 00:00:00,
2013-03-07 18:05:00,29.3,10.0,30.35,South,180,0.0,0.0,44,0.00,,,0.00,WUHU21623XXSP,2013-03-08 00:05:00,
2013-03-07 18:10:00,28.9,10.2,30.35,South,180,0.0,0.0,45,0.00,,,0.00,WUHU21623XXSP,2013-03-08 00:10:00,
2013-03-07 18:15:00,28.8,10.0,30.35,South,180,0.0,0.0,45,0.00,,,0.00,WUHU21623XXSP,2013-03-08 00:15:00,
2013-03-07 18:20:00,28.6,10.0,30.35,South,180,0.0,0.0,45,0.00,,,0.00,WUHU21623XXSP,2013-03-08 00:20:00,
2013-03-07 18:25:00,28.4,9.7,30.35,South,180,0.0,0.0,45,0.00,,,0.00,WUHU21623XXSP,2013-03-08 00:25:00,
2013-03-07 18:30:00,28.4,10.2,30.35,South,180,0.0,0.0,46,0.00,,,0.00,WUHU21623XXSP,2013-03-08 00:30:00,
2013-03-07 18:36:00,28.2,10.0,30.35,South,180,0.0,0.0,46,0.00,,,0.00,WUHU21623XXSP,2013-03-08 00:36:00,
2013-03-07 18:41:00,28.8,11.5,30.35,South,180,0.0,0.0,48,0.00,,,0.00,WUHU21623XXSP,2013-03-08 00:41:00,
2013-03-07 18:46:00,28.8,11.5,30.35,South,180,0.0,0.0,48,0.00,,,0.00,WUHU21623XXSP,2013-03-08 00:46:00,
2013-03-07 18:51:00,28.6,10.8,30.35,South,180,0.0,0.0,47,0.00,,,0.00,WUHU21623XXSP,2013-03-08 00:51:00,
2013-03-07 18:56:00,28.6,10.8,30.35,SE,135,0.0,0.0,47,0.00,,,0.00,WUHU21623XXSP,2013-03-08 00:56:00,
2013-03-07 19:01:00,27.9,10.1,30.35,ENE,67,0.0,0.0,47,0.00,,,0.00,WUHU21623XXSP,2013-03-08 01:01:00,
2013-03-07 19:06:00,27.3,9.6,30.36,ENE,67,0.0,0.0,47,0.00,,,0.00,WUHU21623XXSP,2013-03-08 01:06:00,
2013-03-07 19:11:00,26.8,9.1,30.36,ENE,67,0.0,0.0,47,0.00,,,0.00,WUHU21623XXSP,2013-03-08 01:11:00,
2013-03-07 19:16:00,26.8,9.1,30.36,ENE,67,0.0,0.7,47,0.00,,,0.00,WUHU21623XXSP,2013-03-08 01:16:00,
2013-03-07 19:21:00,26.4,8.8,30.36,ENE,67,0.0,0.7,47,0.00,,,0.00,WUHU21623XXSP,2013-03-08 01:21:00,
2013-03-07 19:26:00,26.1,8.6,30.35,ENE,67,0.0,0.0,47,0.00,,,0.00,WUHU21623XXSP,2013-03-08 01:26:00,
2013-03-07 19:31:00,25.7,8.1,30.35,ENE,67,0.0,0.0,47,0.00,,,0.00,WUHU21623XXSP,2013-03-08 01:31:00,
2013-03-07 19:36:00,25.5,8.0,30.35,ENE,67,0.0,0.0,47,0.00,,,0.00,WUHU21623XXSP,2013-03-08 01:36:00,
2013-03-07 19:41:00,25.2,7.6,30.36,ENE,67,0.0,0.0,47,0.00,,,0.00,WUHU21623XXSP,2013-03-08 01:41:00,
2013-03-07 19:46:00,25.2,8.1,30.35,ENE,67,0.0,0.0,48,0.00,,,0.00,WUHU21623XXSP,2013-03-08 01:46:00,
2013-03-07 19:51:00,24.8,7.8,30.35,NE,45,0.0,0.0,48,0.00,,,0.00,WUHU21623XXSP,2013-03-08 01:51:00,
2013-03-07 19:56:00,24.4,7.5,30.35,ENE,67,0.0,0.0,48,0.00,,,0.00,WUHU21623XXSP,2013-03-08 01:56:00,
2013-03-07 20:01:00,24.3,7.8,30.35,ENE,67,0.0,0.0,49,0.00,,,0.00,WUHU21623XXSP,2013-03-08 02:01:00,
2013-03-07 20:06:00,24.1,7.6,30.35,ENE,67,0.0,0.0,49,0.00,,,0.00,WUHU21623XXSP,2013-03-08 02:06:00,
2013-03-07 20:11:00,23.9,7.5,30.35,ENE,67,0.0,0.0,49,0.00,,,0.00,WUHU21623XXSP,2013-03-08 02:11:00,
2013-03-07 20:16:00,23.9,7.5,30.36,ENE,67,0.0,0.0,49,0.00,,,0.00,WUHU21623XXSP,2013-03-08 02:16:00,
2013-03-07 20:21:00,23.7,7.3,30.36,ENE,67,0.0,0.0,49,0.00,,,0.00,WUHU21623XXSP,2013-03-08 02:21:00,
2013-03-07 20:26:00,23.5,7.2,30.36,ENE,67,0.0,0.0,49,0.00,,,0.00,WUHU21623XXSP,2013-03-08 02:26:00,
2013-03-07 20:31:00,23.5,7.6,30.36,ENE,67,0.0,0.0,50,0.00,,,0.00,WUHU21623XXSP,2013-03-08 02:31:00,
2013-03-07 20:36:00,23.4,7.5,30.35,ENE,67,0.0,0.0,50,0.00,,,0.00,WUHU21623XXSP,2013-03-08 02:36:00,
2013-03-07 20:41:00,23.4,7.5,30.36,ENE,67,0.0,0.0,50,0.00,,,0.00,WUHU21623XXSP,2013-03-08 02:41:00,
2013-03-07 20:46:00,23.5,7.5,30.35,ENE,67,0.0,0.0,50,0.00,,,0.00,WUHU21623XXSP,2013-03-08 02:46:00,
2013-03-07 20:51:00,23.4,7.9,30.35,NE,45,0.0,0.0,51,0.00,,,0.00,WUHU21623XXSP,2013-03-08 02:51:00,
2013-03-07 20:56:00,23.4,7.9,30.36,East,90,0.0,0.0,51,0.00,,,0.00,WUHU21623XXSP,2013-03-08 02:56:00,
2013-03-07 21:01:00,23.2,7.7,30.36,NE,45,0.0,0.7,51,0.00,,,0.00,WUHU21623XXSP,2013-03-08 03:01:00,
2013-03-07 21:06:00,22.8,7.4,30.36,NE,45,0.0,0.7,51,0.00,,,0.00,WUHU21623XXSP,2013-03-08 03:06:00,
2013-03-07 21:11:00,22.8,7.4,30.36,ENE,67,0.0,0.4,51,0.00,,,0.00,WUHU21623XXSP,2013-03-08 03:11:00,
2013-03-07 21:16:00,22.5,7.0,30.36,ENE,67,0.0,0.0,51,0.00,,,0.00,WUHU21623XXSP,2013-03-08 03:16:00,
2013-03-07 21:21:00,22.3,6.8,30.36,ENE,67,0.0,0.0,51,0.00,,,0.00,WUHU21623XXSP,2013-03-08 03:21:00,
2013-03-07 21:26:00,22.3,6.8,30.36,East,90,0.0,0.0,51,0.00,,,0.00,WUHU21623XXSP,2013-03-08 03:26:00,
2013-03-07 21:31:00,22.1,6.7,30.36,East,90,0.0,0.0,51,0.00,,,0.00,WUHU21623XXSP,2013-03-08 03:31:00,
2013-03-07 21:36:00,22.3,6.8,30.36,ENE,67,0.0,0.0,51,0.00,,,0.00,WUHU21623XXSP,2013-03-08 03:36:00,
2013-03-07 21:41:00,22.5,7.4,30.36,ENE,67,0.0,0.0,52,0.00,,,0.00,WUHU21623XXSP,2013-03-08 03:41:00,
2013-03-07 21:46:00,22.5,7.4,30.37,ENE,67,0.0,0.7,52,0.00,,,0.00,WUHU21623XXSP,2013-03-08 03:46:00,
2013-03-07 21:51:00,22.5,7.4,30.36,East,90,0.0,0.7,52,0.00,,,0.00,WUHU21623XXSP,2013-03-08 03:51:00,
2013-03-07 21:56:00,22.5,7.8,30.36,East,90,0.0,0.0,53,0.00,,,0.00,WUHU21623XXSP,2013-03-08 03:56:00,
2013-03-07 22:01:00,22.6,8.0,30.36,East,90,0.7,0.7,53,0.00,,,0.00,WUHU21623XXSP,2013-03-08 04:01:00,
2013-03-07 22:06:00,22.6,8.0,30.36,East,90,0.0,0.7,53,0.00,,,0.00,WUHU21623XXSP,2013-03-08 04:06:00,
2013-03-07 22:11:00,22.6,8.0,30.36,East,90,0.0,0.7,53,0.00,,,0.00,WUHU21623XXSP,2013-03-08 04:11:00,
2013-03-07 22:16:00,22.6,8.4,30.36,ENE,67,0.0,0.0,54,0.00,,,0.00,WUHU21623XXSP,2013-03-08 04:16:00,
2013-03-07 22:21:00,22.5,7.8,30.36,ENE,67,0.0,1.1,53,0.00,,,0.00,WUHU21623XXSP,2013-03-08 04:21:00,
2013-03-07 22:26:00,22.5,8.2,30.36,East,90,0.0,1.1,54,0.00,,,0.00,WUHU21623XXSP,2013-03-08 04:26:00,
2013-03-07 22:31:00,22.5,8.2,30.36,ENE,67,0.0,0.0,54,0.00,,,0.00,WUHU21623XXSP,2013-03-08 04:31:00,
2013-03-07 22:36:00,22.3,8.0,30.36,NE,45,0.0,0.9,54,0.00,,,0.00,WUHU21623XXSP,2013-03-08 04:36:00,
2013-03-07 22:41:00,22.1,7.9,30.35,ENE,67,0.2,0.9,54,0.00,,,0.00,WUHU21623XXSP,2013-03-08 04:41:00,
2013-03-07 22:46:00,21.9,7.7,30.34,ESE,112,2.2,2.5,54,0.00,,,0.00,WUHU21623XXSP,2013-03-08 04:46:00,
2013-03-07 22:51:00,21.7,7.5,30.34,ENE,67,0.7,2.5,54,0.00,,,0.00,WUHU21623XXSP,2013-03-08 04:51:00,
2013-03-07 22:56:00,21.7,7.9,30.35,ESE,112,0.0,0.7,55,0.00,,,0.00,WUHU21623XXSP,2013-03-08 04:56:00,
2013-03-07 23:00:00,21.6,7.8,30.35,ESE,112,0.0,0.7,55,0.00,,,0.00,WUHU21623XXSP,2013-03-08 05:00:00,
2013-03-07 23:02:00,21.6,7.8,30.35,East,90,0.0,0.4,55,0.00,,,0.00,WUHU21623XXSP,2013-03-08 05:02:00,
2013-03-07 23:07:00,21.7,7.9,30.35,ESE,112,1.6,1.6,55,0.00,,,0.00,WUHU21623XXSP,2013-03-08 05:07:00,
2013-03-07 23:12:00,21.7,7.9,30.36,ESE,112,0.0,1.6,55,0.00,,,0.00,WUHU21623XXSP,2013-03-08 05:12:00,
2013-03-07 23:17:00,21.9,8.5,30.36,ESE,112,0.7,1.6,56,0.00,,,0.00,WUHU21623XXSP,2013-03-08 05:17:00,
2013-03-07 23:22:00,22.1,8.7,30.36,ESE,112,0.0,0.7,56,0.00,,,0.00,WUHU21623XXSP,2013-03-08 05:22:00,
2013-03-07 23:27:00,22.1,8.7,30.37,ESE,112,0.0,0.7,56,0.00,,,0.00,WUHU21623XXSP,2013-03-08 05:27:00,
2013-03-07 23:32:00,22.1,8.7,30.37,ENE,67,0.0,0.0,56,0.00,,,0.00,WUHU21623XXSP,2013-03-08 05:32:00,
2013-03-07 23:37:00,22.3,8.9,30.38,ESE,112,0.0,0.0,56,0.00,,,0.00,WUHU21623XXSP,2013-03-08 05:37:00,
2013-03-07 23:42:00,22.1,8.7,30.38,SSE,157,0.0,0.0,56,0.00,,,0.00,WUHU21623XXSP,2013-03-08 05:42:00,
2013-03-07 23:47:00,22.1,8.7,30.38,SSE,157,0.0,0.0,56,0.00,,,0.00,WUHU21623XXSP,2013-03-08 05:47:00,
2013-03-07 23:52:00,22.1,8.7,30.38,East,90,0.0,0.0,56,0.00,,,0.00,WUHU21623XXSP,2013-03-08 05:52:00,
2013-03-07 23:57:00,21.9,8.5,30.38,East,90,0.0,0.0,56,0.00,,,0.00,WUHU21623XXSP,2013-03-08 05:57:00,